Tracking 21606 objects as of 24-Oct-2020
HD Live streaming from Space Station
objects crossing your sky now

COSMOS 761

Track COSMOS 761 now!
10-day predictions
COSMOS 761 is classified as:


NORAD ID: 8285
Int'l Code: 1975-086A
Perigee: 1,405.9 km
Apogee: 1,489.2 km
Inclination: 74.0 °
Period: 114.7 minutes
Semi major axis: 7818 km
RCS: 0.7223 m2 (medium)
Launch date: September 17, 1975
Source: Commonwealth of Independent States (former USSR) (CIS)
Launch site: PLESETSK MISSILE AND SPACE COMPLEX (PKMTR)
aabbcc
Your satellite tracking list
Your tracking list is empty




NASA's NSSDC Master Catalog

Two Line Element Set (TLE):
1  8285U 75086A   20298.23624767 -.00000003 +00000-0 +80417-4 0  9995
2  8285 074.0070 279.6256 0053245 316.3627 054.8166 12.55774697067654
Source of the keplerian elements: AFSPC